This is the latest recevied weather packets stored in our database for station/object K5NAN. If no packets are shown the sender has not sent any weather packets the latest 10 day(s).
| Time | Temp. | Humidity | Pressure | Rain* | Wind** | Luminosity | Snow |
|---|---|---|---|---|---|---|---|
| 1777503236 | 16.11° C | 86% | 1012.1 hPa | 0 mm | - | 66 W/m² | - |
| 1777502933 | 16.11° C | 87% | 1012 hPa | 0 mm | - | 60 W/m² | - |
| 1777502631 | 16.67° C | 86% | 1012.2 hPa | 0 mm | - | 50 W/m² | - |
| 1777502328 | 16.67° C | 85% | 1012.7 hPa | 0 mm | - | 24 W/m² | - |
| 1777502024 | 16.67° C | 84% | 1012.4 hPa | 0 mm | - | 31 W/m² | - |
| 1777501721 | 16.67° C | 83% | 1012.1 hPa | 0 mm | - | 54 W/m² | - |
| 1777501419 | 17.22° C | 83% | 1011.2 hPa | 0 mm | - | 144 W/m² | - |
| 1777501116 | 16.67° C | 83% | 1010.7 hPa | 0 mm | - | 226 W/m² | - |
| 1777500814 | 16.67° C | 84% | 1010.7 hPa | 0 mm | - | 257 W/m² | - |
| 1777500511 | 16.67° C | 84% | 1010.7 hPa | 0 mm | - | 238 W/m² | - |
| 1777500207 | 16.67° C | 84% | 1011.1 hPa | 0 mm | - | 236 W/m² | - |
| 1777499904 | 16.67° C | 83% | 1010.9 hPa | 0 mm | - | 258 W/m² | - |
| 1777499600 | 16.67° C | 84% | 1011 hPa | 0 mm | - | 284 W/m² | - |
| 1777499298 | 17.22° C | 85% | 1011 hPa | 0 mm | - | 314 W/m² | - |
| 1777498995 | 17.22° C | 85% | 1011.1 hPa | 0 mm | - | 258 W/m² | - |
| 1777498691 | 16.67° C | 85% | 1011.1 hPa | 0 mm | - | 225 W/m² | - |
| 1777498388 | 17.22° C | 85% | 1011.4 hPa | 0 mm | - | 282 W/m² | - |
| 1777498085 | 17.22° C | 85% | 1011.3 hPa | 0 mm | - | 370 W/m² | - |
| 1777497782 | 17.22° C | 84% | 1011.5 hPa | 0 mm | - | 286 W/m² | - |
| 1777497479 | 17.22° C | 86% | 1011.6 hPa | 0 mm | - | 331 W/m² | - |
| 1777497175 | 17.22° C | 86% | 1011.4 hPa | 0 mm | - | 241 W/m² | - |
| 1777496872 | 17.22° C | 87% | 1011.3 hPa | 0 mm | - | 230 W/m² | - |
| 1777496568 | 17.22° C | 86% | 1011.6 hPa | 0 mm | - | 237 W/m² | - |
| 1777496264 | 17.78° C | 86% | 1011.8 hPa | 0 mm | - | 238 W/m² | - |
| 1777495961 | 17.78° C | 87% | 1011.8 hPa | 0 mm | - | 396 W/m² | - |
* Rain latest hour (hover to see other rain measurements)
** Current wind speed in m/s (hover to see current wind gust speed)